Location: Newark
(49.5647°N, 8.2922°E)
Time: 05:50:27
(UTC+00:00)

Transit 2A - Pass Details

Date: 20 February 2020
Orbit: 597 x 962 km, 66.7° (Epoch: 07 April)

Event Time Altitude Azimuth Distance (km) Brightness Sun altitude
Rises 22:02:39 0° 319° (NW) 3,072 9.9 -46.3°
Enters shadow 22:04:01 - 316° (NW) 2,554 9.3 -46.4°
Reaches altitude 10° 22:04:57 10° 313° (NW) 2,204 - -46.5°
Maximum altitude 22:09:45 46° 242° (WSW) 1,030 - -47.0°
Drops below altitude 10° 22:15:01 10° 170° (S) 2,424 - -47.4°
Sets 22:17:40 0° 165° (SSE) 3,413 - -47.7°
